Year,Month,Day,Hour,Minute,Value (Times are PST for temperature in C)
2014,09,16,00,00,14.80
2014,09,16,00,01,14.80
2014,09,16,00,02,14.80
2014,09,16,00,03,14.90
2014,09,16,00,04,14.90
2014,09,16,00,05,14.90
2014,09,16,00,06,14.90
2014,09,16,00,07,14.90
2014,09,16,00,08,14.90
2014,09,16,00,09,14.90
2014,09,16,00,10,14.90
2014,09,16,00,11,14.90
2014,09,16,00,12,14.90
2014,09,16,00,13,15.00
2014,09,16,00,14,15.00
2014,09,16,00,15,15.00
2014,09,16,00,16,15.10
2014,09,16,00,17,15.10
2014,09,16,00,18,15.20
2014,09,16,00,19,15.30
2014,09,16,00,20,15.30
2014,09,16,00,21,15.40
2014,09,16,00,22,15.50
2014,09,16,00,23,15.50
2014,09,16,00,24,15.60
2014,09,16,00,25,15.70
2014,09,16,00,26,15.80
2014,09,16,00,27,15.80
2014,09,16,00,28,15.80
2014,09,16,00,29,15.90
2014,09,16,00,30,15.90
2014,09,16,00,31,16.00
2014,09,16,00,32,16.10
2014,09,16,00,33,16.10
2014,09,16,00,34,16.10
2014,09,16,00,35,16.10
2014,09,16,00,36,16.10
2014,09,16,00,37,16.10
2014,09,16,00,38,16.10
2014,09,16,00,39,16.10
2014,09,16,00,40,16.10
2014,09,16,00,41,16.10
2014,09,16,00,42,16.10
2014,09,16,00,43,16.10
2014,09,16,00,44,16.10
2014,09,16,00,45,16.10
2014,09,16,00,46,16.10
2014,09,16,00,47,16.10
2014,09,16,00,48,16.10
2014,09,16,00,49,16.00
2014,09,16,00,50,15.90
2014,09,16,00,51,15.90
2014,09,16,00,52,15.90
2014,09,16,00,53,15.90
2014,09,16,00,54,15.80
2014,09,16,00,55,15.80
2014,09,16,00,56,15.80
2014,09,16,00,57,15.80
2014,09,16,00,58,15.70
2014,09,16,00,59,15.70
2014,09,16,01,00,15.60
2014,09,16,01,01,15.60
2014,09,16,01,02,15.50
2014,09,16,01,03,15.50
2014,09,16,01,04,15.50
2014,09,16,01,05,15.40
2014,09,16,01,06,15.50
2014,09,16,01,07,15.50
2014,09,16,01,08,15.50
2014,09,16,01,09,15.50
2014,09,16,01,10,15.60
2014,09,16,01,11,15.60
2014,09,16,01,12,15.60
2014,09,16,01,13,15.60
2014,09,16,01,14,15.60
2014,09,16,01,15,15.70
2014,09,16,01,16,15.70
2014,09,16,01,17,15.70
2014,09,16,01,18,15.70
2014,09,16,01,19,15.80
2014,09,16,01,20,15.80
2014,09,16,01,21,15.80
2014,09,16,01,22,15.80
2014,09,16,01,23,15.80
2014,09,16,01,24,15.80
2014,09,16,01,25,15.80
2014,09,16,01,26,15.80
2014,09,16,01,27,15.80
2014,09,16,01,28,15.80
2014,09,16,01,29,15.80
2014,09,16,01,30,15.80
2014,09,16,01,31,15.80
2014,09,16,01,32,15.80
2014,09,16,01,33,15.80
2014,09,16,01,34,15.80
2014,09,16,01,35,15.80
2014,09,16,01,36,15.80
2014,09,16,01,37,15.80
2014,09,16,01,38,15.70
2014,09,16,01,39,15.70
2014,09,16,01,40,15.70
2014,09,16,01,41,15.70
2014,09,16,01,42,15.60
2014,09,16,01,43,15.60
2014,09,16,01,44,15.60
2014,09,16,01,45,15.60
2014,09,16,01,46,15.60
2014,09,16,01,47,15.50
2014,09,16,01,48,15.50
2014,09,16,01,49,15.50
2014,09,16,01,50,15.50
2014,09,16,01,51,15.50
2014,09,16,01,52,15.50
2014,09,16,01,53,15.50
2014,09,16,01,54,15.50
2014,09,16,01,55,15.50
2014,09,16,01,56,15.50
2014,09,16,01,57,15.50
2014,09,16,01,58,15.50
2014,09,16,01,59,15.40
2014,09,16,02,00,15.40
2014,09,16,02,01,15.40
2014,09,16,02,02,15.30
2014,09,16,02,03,15.30
2014,09,16,02,04,15.30
2014,09,16,02,05,15.30
2014,09,16,02,06,15.20
2014,09,16,02,07,15.20
2014,09,16,02,08,15.10
2014,09,16,02,09,15.10
2014,09,16,02,10,15.00
2014,09,16,02,11,15.00
2014,09,16,02,12,15.00
2014,09,16,02,13,14.90
2014,09,16,02,14,14.90
2014,09,16,02,15,14.80
2014,09,16,02,16,14.80
2014,09,16,02,17,14.80
2014,09,16,02,18,14.80
2014,09,16,02,19,14.70
2014,09,16,02,20,14.70
2014,09,16,02,21,14.60
2014,09,16,02,22,14.60
2014,09,16,02,23,14.60
2014,09,16,02,24,14.50
2014,09,16,02,25,14.50
2014,09,16,02,26,14.40
2014,09,16,02,27,14.40
2014,09,16,02,28,14.30
2014,09,16,02,29,14.20
2014,09,16,02,30,14.20
2014,09,16,02,31,14.20
2014,09,16,02,32,14.20
2014,09,16,02,33,14.10
2014,09,16,02,34,14.10
2014,09,16,02,35,14.00
2014,09,16,02,36,14.00
2014,09,16,02,37,14.00
2014,09,16,02,38,14.00
2014,09,16,02,39,14.00
2014,09,16,02,40,14.00
2014,09,16,02,41,13.90
2014,09,16,02,42,13.90
2014,09,16,02,43,13.90
2014,09,16,02,44,13.90
2014,09,16,02,45,13.90
2014,09,16,02,46,13.80
2014,09,16,02,47,13.80
2014,09,16,02,48,13.80
2014,09,16,02,49,13.70
2014,09,16,02,50,13.70
2014,09,16,02,51,13.70
2014,09,16,02,52,13.70
2014,09,16,02,53,13.70
2014,09,16,02,54,13.60
2014,09,16,02,55,13.60
2014,09,16,02,56,13.60
2014,09,16,02,57,13.50
2014,09,16,02,58,13.50
2014,09,16,02,59,13.50
2014,09,16,03,00,13.50
2014,09,16,03,01,13.50
2014,09,16,03,02,13.50
2014,09,16,03,03,13.50
2014,09,16,03,04,13.50
2014,09,16,03,05,13.50
2014,09,16,03,06,13.50
2014,09,16,03,07,13.50
2014,09,16,03,08,13.50
2014,09,16,03,09,13.50
2014,09,16,03,10,13.60
2014,09,16,03,11,13.60
2014,09,16,03,12,13.60
2014,09,16,03,13,13.60
2014,09,16,03,14,13.60
2014,09,16,03,15,13.60
2014,09,16,03,16,13.60
2014,09,16,03,17,13.60
2014,09,16,03,18,13.60
2014,09,16,03,19,13.60
2014,09,16,03,20,13.60
2014,09,16,03,21,13.60
2014,09,16,03,22,13.60
2014,09,16,03,23,13.60
2014,09,16,03,24,13.60
2014,09,16,03,25,13.60
2014,09,16,03,26,13.60
2014,09,16,03,27,13.60
2014,09,16,03,28,13.60
2014,09,16,03,29,13.60
2014,09,16,03,30,13.60
2014,09,16,03,31,13.60
2014,09,16,03,32,13.60
2014,09,16,03,33,13.50
2014,09,16,03,34,13.50
2014,09,16,03,35,13.50
2014,09,16,03,36,13.50
2014,09,16,03,37,13.50
2014,09,16,03,38,13.50
2014,09,16,03,39,13.50
2014,09,16,03,40,13.50
2014,09,16,03,41,13.50
2014,09,16,03,42,13.50
2014,09,16,03,43,13.50
2014,09,16,03,44,13.60
2014,09,16,03,45,13.70
2014,09,16,03,46,13.70
2014,09,16,03,47,13.80
2014,09,16,03,48,13.80
2014,09,16,03,49,13.80
2014,09,16,03,50,13.90
2014,09,16,03,51,13.90
2014,09,16,03,52,13.90
2014,09,16,03,53,13.90
2014,09,16,03,54,13.90
2014,09,16,03,55,14.00
2014,09,16,03,56,14.00
2014,09,16,03,57,14.00
2014,09,16,03,58,14.00
2014,09,16,03,59,14.00
2014,09,16,04,00,14.00
2014,09,16,04,01,14.00
2014,09,16,04,02,14.00
2014,09,16,04,03,14.00
2014,09,16,04,04,14.00
2014,09,16,04,05,14.00
2014,09,16,04,06,14.00
2014,09,16,04,07,13.90
2014,09,16,04,08,13.90
2014,09,16,04,09,13.90
2014,09,16,04,10,13.90
2014,09,16,04,11,13.80
2014,09,16,04,12,13.80
2014,09,16,04,13,13.80
2014,09,16,04,14,13.70
2014,09,16,04,15,13.70
2014,09,16,04,16,13.70
2014,09,16,04,17,13.70
2014,09,16,04,18,13.60
2014,09,16,04,19,13.60
2014,09,16,04,20,13.60
2014,09,16,04,21,13.60
2014,09,16,04,22,13.60
2014,09,16,04,23,13.60
2014,09,16,04,24,13.60
2014,09,16,04,25,13.60
2014,09,16,04,26,13.60
2014,09,16,04,27,13.70
2014,09,16,04,28,13.70
2014,09,16,04,29,13.70
2014,09,16,04,30,13.70
2014,09,16,04,31,13.70
2014,09,16,04,32,13.70
2014,09,16,04,33,13.70
2014,09,16,04,34,13.70
2014,09,16,04,35,13.70
2014,09,16,04,36,13.70
2014,09,16,04,37,13.70
2014,09,16,04,38,13.70
2014,09,16,04,39,13.70
2014,09,16,04,40,13.70
2014,09,16,04,41,13.70
2014,09,16,04,42,13.70
2014,09,16,04,43,13.70
2014,09,16,04,44,13.70
2014,09,16,04,45,13.70
2014,09,16,04,46,13.60
2014,09,16,04,47,13.60
2014,09,16,04,48,13.60
2014,09,16,04,49,13.50
2014,09,16,04,50,13.50
2014,09,16,04,51,13.50
2014,09,16,04,52,13.40
2014,09,16,04,53,13.40
2014,09,16,04,54,13.40
2014,09,16,04,55,13.30
2014,09,16,04,56,13.30
2014,09,16,04,57,13.30
2014,09,16,04,58,13.30
2014,09,16,04,59,13.30
2014,09,16,05,00,13.30
2014,09,16,05,01,13.30
2014,09,16,05,02,13.30
2014,09,16,05,03,13.30
2014,09,16,05,04,13.30
2014,09,16,05,05,13.30
2014,09,16,05,06,13.30
2014,09,16,05,07,13.30
2014,09,16,05,08,13.40
2014,09,16,05,09,13.50
2014,09,16,05,10,13.60
2014,09,16,05,11,13.60
2014,09,16,05,12,13.70
2014,09,16,05,13,13.80
2014,09,16,05,14,13.90
2014,09,16,05,15,14.00
2014,09,16,05,16,14.20
2014,09,16,05,17,14.30
2014,09,16,05,18,14.40
2014,09,16,05,19,14.50
2014,09,16,05,20,14.60
2014,09,16,05,21,14.60
2014,09,16,05,22,14.70
2014,09,16,05,23,14.80
2014,09,16,05,24,14.80
2014,09,16,05,25,14.80
2014,09,16,05,26,14.80
2014,09,16,05,27,14.90
2014,09,16,05,28,14.90
2014,09,16,05,29,15.00
2014,09,16,05,30,15.00
2014,09,16,05,31,15.10
2014,09,16,05,32,15.10
2014,09,16,05,33,15.10
2014,09,16,05,34,15.10
2014,09,16,05,35,15.10
2014,09,16,05,36,15.10
2014,09,16,05,37,15.00
2014,09,16,05,38,15.00
2014,09,16,05,39,14.90
2014,09,16,05,40,14.90
2014,09,16,05,41,14.80
2014,09,16,05,42,14.80
2014,09,16,05,43,14.80
2014,09,16,05,44,14.80
2014,09,16,05,45,14.80
2014,09,16,05,46,14.70
2014,09,16,05,47,14.70
2014,09,16,05,48,14.60
2014,09,16,05,49,14.60
2014,09,16,05,50,14.50
2014,09,16,05,51,14.50
2014,09,16,05,52,14.40
2014,09,16,05,53,14.30
2014,09,16,05,54,14.10
2014,09,16,05,55,14.00
2014,09,16,05,56,14.00
2014,09,16,05,57,13.90
2014,09,16,05,58,13.80
2014,09,16,05,59,13.70
2014,09,16,06,00,13.70
2014,09,16,06,01,13.60
2014,09,16,06,02,13.60
2014,09,16,06,03,13.50
2014,09,16,06,04,13.50
2014,09,16,06,05,13.40
2014,09,16,06,06,13.40
2014,09,16,06,07,13.30
2014,09,16,06,08,13.30
2014,09,16,06,09,13.20
2014,09,16,06,10,13.20
2014,09,16,06,11,13.10
2014,09,16,06,12,13.10
2014,09,16,06,13,13.10
2014,09,16,06,14,13.00
2014,09,16,06,15,13.00
2014,09,16,06,16,12.90
2014,09,16,06,17,12.90
2014,09,16,06,18,12.90
2014,09,16,06,19,12.90
2014,09,16,06,20,12.90
2014,09,16,06,21,12.90
2014,09,16,06,22,12.80
2014,09,16,06,23,12.80
2014,09,16,06,24,12.80
2014,09,16,06,25,12.80
2014,09,16,06,26,12.80
2014,09,16,06,27,12.80
2014,09,16,06,28,12.80
2014,09,16,06,29,12.80
2014,09,16,06,30,12.80
2014,09,16,06,31,12.80
2014,09,16,06,32,12.80
2014,09,16,06,33,12.80
2014,09,16,06,34,12.80
2014,09,16,06,35,12.80
2014,09,16,06,36,12.80
2014,09,16,06,37,12.80
2014,09,16,06,38,12.80
2014,09,16,06,39,12.80
2014,09,16,06,40,12.80
2014,09,16,06,41,12.80
2014,09,16,06,42,12.80
2014,09,16,06,43,12.80
2014,09,16,06,44,12.70
2014,09,16,06,45,12.70
2014,09,16,06,46,12.70
2014,09,16,06,47,12.60
2014,09,16,06,48,12.60
2014,09,16,06,49,12.60
2014,09,16,06,50,12.60
2014,09,16,06,51,12.50
2014,09,16,06,52,12.50
2014,09,16,06,53,12.50
2014,09,16,06,54,12.40
2014,09,16,06,55,12.40
2014,09,16,06,56,12.40
2014,09,16,06,57,12.30
2014,09,16,06,58,12.30
2014,09,16,06,59,12.30
2014,09,16,07,00,12.30
2014,09,16,07,01,12.30
2014,09,16,07,02,12.30
2014,09,16,07,03,12.30
2014,09,16,07,04,12.30
2014,09,16,07,05,12.30
2014,09,16,07,06,12.30
2014,09,16,07,07,12.30
2014,09,16,07,08,12.30
2014,09,16,07,09,12.30
2014,09,16,07,10,12.30
2014,09,16,07,11,12.30
2014,09,16,07,12,12.30
2014,09,16,07,13,12.30
2014,09,16,07,14,12.30
2014,09,16,07,15,12.30
2014,09,16,07,16,12.30
2014,09,16,07,17,12.40
2014,09,16,07,18,12.40
2014,09,16,07,19,12.50
2014,09,16,07,20,12.50
2014,09,16,07,21,12.60
2014,09,16,07,22,12.70
2014,09,16,07,23,12.70
2014,09,16,07,24,12.80
2014,09,16,07,25,12.80
2014,09,16,07,26,12.90
2014,09,16,07,27,13.10
2014,09,16,07,28,13.20
2014,09,16,07,29,13.40
2014,09,16,07,30,13.60
2014,09,16,07,31,13.70
2014,09,16,07,32,13.80
2014,09,16,07,33,13.80
2014,09,16,07,34,13.80
2014,09,16,07,35,13.70
2014,09,16,07,36,13.70
2014,09,16,07,37,13.60
2014,09,16,07,38,13.50
2014,09,16,07,39,13.50
2014,09,16,07,40,13.40
2014,09,16,07,41,13.40
2014,09,16,07,42,13.40
2014,09,16,07,43,13.40
2014,09,16,07,44,13.40
2014,09,16,07,45,13.40
2014,09,16,07,46,13.50
2014,09,16,07,47,13.50
2014,09,16,07,48,13.50
2014,09,16,07,49,13.50
2014,09,16,07,50,13.40
2014,09,16,07,51,13.40
2014,09,16,07,52,13.40
2014,09,16,07,53,13.30
2014,09,16,07,54,13.30
2014,09,16,07,55,13.30
2014,09,16,07,56,13.30
2014,09,16,07,57,13.30
2014,09,16,07,58,13.30
2014,09,16,07,59,13.30
2014,09,16,08,00,13.30
2014,09,16,08,01,13.30
2014,09,16,08,02,13.30
2014,09,16,08,03,13.40
2014,09,16,08,04,13.40
2014,09,16,08,05,13.50
2014,09,16,08,06,13.50
2014,09,16,08,07,13.50
2014,09,16,08,08,13.60
2014,09,16,08,09,13.60
2014,09,16,08,10,13.60
2014,09,16,08,11,13.60
2014,09,16,08,12,13.60
2014,09,16,08,13,13.70
2014,09,16,08,14,13.70
2014,09,16,08,15,13.70
2014,09,16,08,16,13.70
2014,09,16,08,17,13.70
2014,09,16,08,18,13.70
2014,09,16,08,19,13.70
2014,09,16,08,20,13.70
2014,09,16,08,21,13.70
2014,09,16,08,22,13.80
2014,09,16,08,23,13.80
2014,09,16,08,24,13.80
2014,09,16,08,25,13.80
2014,09,16,08,26,13.80
2014,09,16,08,27,13.80
2014,09,16,08,28,13.90
2014,09,16,08,29,13.90
2014,09,16,08,30,13.90
2014,09,16,08,31,13.90
2014,09,16,08,32,14.00
2014,09,16,08,33,14.00
2014,09,16,08,34,14.10
2014,09,16,08,35,14.20
2014,09,16,08,36,14.30
2014,09,16,08,37,14.40
2014,09,16,08,38,14.50
2014,09,16,08,39,14.50
2014,09,16,08,40,14.60
2014,09,16,08,41,14.70
2014,09,16,08,42,14.70
2014,09,16,08,43,14.80
2014,09,16,08,44,14.80
2014,09,16,08,45,14.90
2014,09,16,08,46,14.90
2014,09,16,08,47,15.00
2014,09,16,08,48,15.00
2014,09,16,08,49,15.10
2014,09,16,08,50,15.20
2014,09,16,08,51,15.20
2014,09,16,08,52,15.30
2014,09,16,08,53,15.30
2014,09,16,08,54,15.30
2014,09,16,08,55,15.30
2014,09,16,08,56,15.30
2014,09,16,08,57,15.30
2014,09,16,08,58,15.30
2014,09,16,08,59,15.30
2014,09,16,09,00,15.30
2014,09,16,09,01,15.30
2014,09,16,09,02,15.30
2014,09,16,09,03,15.30
2014,09,16,09,04,15.30
2014,09,16,09,05,15.30
2014,09,16,09,06,15.30
2014,09,16,09,07,15.30
2014,09,16,09,08,15.40
2014,09,16,09,09,15.40
2014,09,16,09,10,15.50
2014,09,16,09,11,15.50
2014,09,16,09,12,15.60
2014,09,16,09,13,15.70
2014,09,16,09,14,15.70
2014,09,16,09,15,15.80
2014,09,16,09,16,15.80
2014,09,16,09,17,15.80
2014,09,16,09,18,15.80
2014,09,16,09,19,15.80
2014,09,16,09,20,15.80
2014,09,16,09,21,15.90
2014,09,16,09,22,15.90
2014,09,16,09,23,15.90
2014,09,16,09,24,15.90
2014,09,16,09,25,15.90
2014,09,16,09,26,16.00
2014,09,16,09,27,16.10
2014,09,16,09,28,16.10
2014,09,16,09,29,16.10
2014,09,16,09,30,16.10
2014,09,16,09,31,16.10
2014,09,16,09,32,16.10
2014,09,16,09,33,16.00
2014,09,16,09,34,15.90
2014,09,16,09,35,15.90
2014,09,16,09,36,15.90
2014,09,16,09,37,15.90
2014,09,16,09,38,15.90
2014,09,16,09,39,15.80
2014,09,16,09,40,15.80
2014,09,16,09,41,15.80
2014,09,16,09,42,15.80
2014,09,16,09,43,15.80
2014,09,16,09,44,15.80
2014,09,16,09,45,15.80
2014,09,16,09,46,15.90
2014,09,16,09,47,15.90
2014,09,16,09,48,15.90
2014,09,16,09,49,15.90
2014,09,16,09,50,15.90
2014,09,16,09,51,15.90
2014,09,16,09,52,16.00
2014,09,16,09,53,16.10
2014,09,16,09,54,16.10
2014,09,16,09,55,16.10
2014,09,16,09,56,16.10
2014,09,16,09,57,16.10
2014,09,16,09,58,16.10
2014,09,16,09,59,16.20
2014,09,16,10,00,16.20
2014,09,16,10,01,16.30
2014,09,16,10,02,16.30
2014,09,16,10,03,16.40
2014,09,16,10,04,16.40
2014,09,16,10,05,16.40
2014,09,16,10,06,16.50
2014,09,16,10,07,16.60
2014,09,16,10,08,16.60
2014,09,16,10,09,16.50
2014,09,16,10,10,16.40
2014,09,16,10,11,16.40
2014,09,16,10,12,16.40
2014,09,16,10,13,16.40
2014,09,16,10,14,16.40
2014,09,16,10,15,16.60
2014,09,16,10,16,16.60
2014,09,16,10,17,16.70
2014,09,16,10,18,16.70
2014,09,16,10,19,16.70
2014,09,16,10,20,16.70
2014,09,16,10,21,16.80
2014,09,16,10,22,16.90
2014,09,16,10,23,16.90
2014,09,16,10,24,17.00
2014,09,16,10,25,17.00
2014,09,16,10,26,17.20
2014,09,16,10,27,17.30
2014,09,16,10,28,17.50
2014,09,16,10,29,17.50
2014,09,16,10,30,17.50
2014,09,16,10,31,17.60
2014,09,16,10,32,17.60
2014,09,16,10,33,17.60
2014,09,16,10,34,17.70
2014,09,16,10,35,17.70
2014,09,16,10,36,17.70
2014,09,16,10,37,17.80
2014,09,16,10,38,17.90
2014,09,16,10,39,18.10
2014,09,16,10,40,18.20
2014,09,16,10,41,18.20
2014,09,16,10,42,18.20
2014,09,16,10,43,18.30
2014,09,16,10,44,18.30
2014,09,16,10,45,18.50
2014,09,16,10,46,18.50
2014,09,16,10,47,18.50
2014,09,16,10,48,18.50
2014,09,16,10,49,18.60
2014,09,16,10,50,18.80
2014,09,16,10,51,18.90
2014,09,16,10,52,19.00
2014,09,16,10,53,19.10
2014,09,16,10,54,19.20
2014,09,16,10,55,19.20
2014,09,16,10,56,19.30
2014,09,16,10,57,19.40
2014,09,16,10,58,19.50
2014,09,16,10,59,19.50
2014,09,16,11,00,19.40
2014,09,16,11,01,19.40
2014,09,16,11,02,19.50
2014,09,16,11,03,19.60
2014,09,16,11,04,19.60
2014,09,16,11,05,19.70
2014,09,16,11,06,19.70
2014,09,16,11,07,19.80
2014,09,16,11,08,19.90
2014,09,16,11,09,19.90
2014,09,16,11,10,20.00
2014,09,16,11,11,20.00
2014,09,16,11,12,20.10
2014,09,16,11,13,20.20
2014,09,16,11,14,20.30
2014,09,16,11,15,20.40
2014,09,16,11,16,20.50
2014,09,16,11,17,20.50
2014,09,16,11,18,20.50
2014,09,16,11,19,20.50
2014,09,16,11,20,20.60
2014,09,16,11,21,20.60
2014,09,16,11,22,20.60
2014,09,16,11,23,20.70
2014,09,16,11,24,20.70
2014,09,16,11,25,20.70
2014,09,16,11,26,20.70
2014,09,16,11,27,20.70
2014,09,16,11,28,20.70
2014,09,16,11,29,20.80
2014,09,16,11,30,20.90
2014,09,16,11,31,21.10
2014,09,16,11,32,21.20
2014,09,16,11,33,21.30
2014,09,16,11,34,21.40
2014,09,16,11,35,21.60
2014,09,16,11,36,21.60
2014,09,16,11,37,21.60
2014,09,16,11,38,21.30
2014,09,16,11,39,21.20
2014,09,16,11,40,21.10
2014,09,16,11,41,21.00
2014,09,16,11,42,21.00
2014,09,16,11,43,20.90
2014,09,16,11,44,20.90
2014,09,16,11,45,20.90
2014,09,16,11,46,20.90
2014,09,16,11,47,20.80
2014,09,16,11,48,20.70
2014,09,16,11,49,20.50
2014,09,16,11,50,20.50
2014,09,16,11,51,20.40
2014,09,16,11,52,20.40
2014,09,16,11,53,20.40
2014,09,16,11,54,20.50
2014,09,16,11,55,20.50
2014,09,16,11,56,20.60
2014,09,16,11,57,20.60
2014,09,16,11,58,20.60
2014,09,16,11,59,20.60
2014,09,16,12,00,20.60
2014,09,16,12,01,20.50
2014,09,16,12,02,20.50
2014,09,16,12,03,20.50
2014,09,16,12,04,20.50
2014,09,16,12,05,20.50
2014,09,16,12,06,20.50
2014,09,16,12,07,20.50
2014,09,16,12,08,20.60
2014,09,16,12,09,20.60
2014,09,16,12,10,20.60
2014,09,16,12,11,20.60
2014,09,16,12,12,20.60
2014,09,16,12,13,20.70
2014,09,16,12,14,20.70
2014,09,16,12,15,20.70
2014,09,16,12,16,20.80
2014,09,16,12,17,20.80
2014,09,16,12,18,20.80
2014,09,16,12,19,20.90
2014,09,16,12,20,20.90
2014,09,16,12,21,20.90
2014,09,16,12,22,20.80
2014,09,16,12,23,20.70
2014,09,16,12,24,20.60
2014,09,16,12,25,20.60
2014,09,16,12,26,20.70
2014,09,16,12,27,20.80
2014,09,16,12,28,20.80
2014,09,16,12,29,20.90
2014,09,16,12,30,20.90
2014,09,16,12,31,21.00
2014,09,16,12,32,21.10
2014,09,16,12,33,21.10
2014,09,16,12,34,21.30
2014,09,16,12,35,21.50
2014,09,16,12,36,21.60
2014,09,16,12,37,21.60
2014,09,16,12,38,21.60
2014,09,16,12,39,21.60
2014,09,16,12,40,21.60
2014,09,16,12,41,21.70
2014,09,16,12,42,21.80
2014,09,16,12,43,22.00
2014,09,16,12,44,22.00
2014,09,16,12,45,22.10
2014,09,16,12,46,22.20
2014,09,16,12,47,22.30
2014,09,16,12,48,22.30
2014,09,16,12,49,22.40
2014,09,16,12,50,22.40
2014,09,16,12,51,22.40
2014,09,16,12,52,22.40
2014,09,16,12,53,22.40
2014,09,16,12,54,22.20
2014,09,16,12,55,22.10
2014,09,16,12,56,22.10
2014,09,16,12,57,22.10
2014,09,16,12,58,22.10
2014,09,16,12,59,22.00
2014,09,16,13,00,22.00
2014,09,16,13,01,21.90
2014,09,16,13,02,21.80
2014,09,16,13,03,21.70
2014,09,16,13,04,21.60
2014,09,16,13,05,21.50
2014,09,16,13,06,21.40
2014,09,16,13,07,21.40
2014,09,16,13,08,21.40
2014,09,16,13,09,21.40
2014,09,16,13,10,21.30
2014,09,16,13,11,21.30
2014,09,16,13,12,21.40
2014,09,16,13,13,21.40
2014,09,16,13,14,21.50
2014,09,16,13,15,21.60
2014,09,16,13,16,21.60
2014,09,16,13,17,21.70
2014,09,16,13,18,21.70
2014,09,16,13,19,21.70
2014,09,16,13,20,21.70
2014,09,16,13,21,21.70
2014,09,16,13,22,21.70
2014,09,16,13,23,21.70
2014,09,16,13,24,21.70
2014,09,16,13,25,21.90
2014,09,16,13,26,22.00
2014,09,16,13,27,22.10
2014,09,16,13,28,22.10
2014,09,16,13,29,22.10
2014,09,16,13,30,22.10
2014,09,16,13,31,22.20
2014,09,16,13,32,22.30
2014,09,16,13,33,22.30
2014,09,16,13,34,22.40
2014,09,16,13,35,22.40
2014,09,16,13,36,22.50
2014,09,16,13,37,22.50
2014,09,16,13,38,22.60
2014,09,16,13,39,22.70
2014,09,16,13,40,22.80
2014,09,16,13,41,22.80
2014,09,16,13,42,22.90
2014,09,16,13,43,22.90
2014,09,16,13,44,22.80
2014,09,16,13,45,22.80
2014,09,16,13,46,22.80
2014,09,16,13,47,22.70
2014,09,16,13,48,22.70
2014,09,16,13,49,22.70
2014,09,16,13,50,22.50
2014,09,16,13,51,22.40
2014,09,16,13,52,22.40
2014,09,16,13,53,22.50
2014,09,16,13,54,22.50
2014,09,16,13,55,22.50
2014,09,16,13,56,22.50
2014,09,16,13,57,22.60
2014,09,16,13,58,22.60
2014,09,16,13,59,22.60
2014,09,16,14,00,22.40
2014,09,16,14,01,22.30
2014,09,16,14,02,22.30
2014,09,16,14,03,22.30
2014,09,16,14,04,22.40
2014,09,16,14,05,22.50
2014,09,16,14,06,22.60
2014,09,16,14,07,22.70
2014,09,16,14,08,22.60
2014,09,16,14,09,22.60
2014,09,16,14,10,22.40
2014,09,16,14,11,22.30
2014,09,16,14,12,22.30
2014,09,16,14,13,22.30
2014,09,16,14,14,22.30
2014,09,16,14,15,22.30
2014,09,16,14,16,22.40
2014,09,16,14,17,22.50
2014,09,16,14,18,22.60
2014,09,16,14,19,22.70
2014,09,16,14,20,22.80
2014,09,16,14,21,22.90
2014,09,16,14,22,22.90
2014,09,16,14,23,22.90
2014,09,16,14,24,22.90
2014,09,16,14,25,22.90
2014,09,16,14,26,22.90
2014,09,16,14,27,23.00
2014,09,16,14,28,23.20
2014,09,16,14,29,23.20
2014,09,16,14,30,23.20
2014,09,16,14,31,23.30
2014,09,16,14,32,23.30
2014,09,16,14,33,23.30
2014,09,16,14,34,23.30
2014,09,16,14,35,23.30
2014,09,16,14,36,23.30
2014,09,16,14,37,23.40
2014,09,16,14,38,23.50
2014,09,16,14,39,23.50
2014,09,16,14,40,23.40
2014,09,16,14,41,23.40
2014,09,16,14,42,23.40
2014,09,16,14,43,23.50
2014,09,16,14,44,23.60
2014,09,16,14,45,23.70
2014,09,16,14,46,23.70
2014,09,16,14,47,23.50
2014,09,16,14,48,23.40
2014,09,16,14,49,23.30
2014,09,16,14,50,23.20
2014,09,16,14,51,23.10
2014,09,16,14,52,23.00
2014,09,16,14,53,22.90
2014,09,16,14,54,23.00
2014,09,16,14,55,22.90
2014,09,16,14,56,23.00
2014,09,16,14,57,23.00
2014,09,16,14,58,22.90
2014,09,16,14,59,22.90
2014,09,16,15,00,22.90
2014,09,16,15,01,22.90
2014,09,16,15,02,22.90
2014,09,16,15,03,22.90
2014,09,16,15,04,22.90
2014,09,16,15,05,23.10
2014,09,16,15,06,23.10
2014,09,16,15,07,23.20
2014,09,16,15,08,23.30
2014,09,16,15,09,23.30
2014,09,16,15,10,23.30
2014,09,16,15,11,23.30
2014,09,16,15,12,23.30
2014,09,16,15,13,23.30
2014,09,16,15,14,23.30
2014,09,16,15,15,23.30
2014,09,16,15,16,23.30
2014,09,16,15,17,23.20
2014,09,16,15,18,23.30
2014,09,16,15,19,23.30
2014,09,16,15,20,23.30
2014,09,16,15,21,23.30
2014,09,16,15,22,23.30
2014,09,16,15,23,23.40
2014,09,16,15,24,23.40
2014,09,16,15,25,23.50
2014,09,16,15,26,23.60
2014,09,16,15,27,23.70
2014,09,16,15,28,23.80
2014,09,16,15,29,23.80
2014,09,16,15,30,23.80
2014,09,16,15,31,23.80
2014,09,16,15,32,23.80
2014,09,16,15,33,23.70
2014,09,16,15,34,23.70
2014,09,16,15,35,23.70
2014,09,16,15,36,23.60
2014,09,16,15,37,23.40
2014,09,16,15,38,23.30
2014,09,16,15,39,23.30
2014,09,16,15,40,23.30
2014,09,16,15,41,23.40
2014,09,16,15,42,23.50
2014,09,16,15,43,23.60
2014,09,16,15,44,23.60
2014,09,16,15,45,23.60
2014,09,16,15,46,23.70
2014,09,16,15,47,23.70
2014,09,16,15,48,23.70
2014,09,16,15,49,23.70
2014,09,16,15,50,23.60
2014,09,16,15,51,23.60
2014,09,16,15,52,23.60
2014,09,16,15,53,23.60
2014,09,16,15,54,23.50
2014,09,16,15,55,23.40
2014,09,16,15,56,23.30
2014,09,16,15,57,23.30
2014,09,16,15,58,23.30
2014,09,16,15,59,23.30
2014,09,16,16,00,23.30
2014,09,16,16,01,23.30
2014,09,16,16,02,23.30
2014,09,16,16,03,23.30
2014,09,16,16,04,23.30
2014,09,16,16,05,23.30
2014,09,16,16,06,23.20
2014,09,16,16,07,23.20
2014,09,16,16,08,23.20
2014,09,16,16,09,23.20
2014,09,16,16,10,23.20
2014,09,16,16,11,23.20
2014,09,16,16,12,23.20
2014,09,16,16,13,23.30
2014,09,16,16,14,23.30
2014,09,16,16,15,23.30
2014,09,16,16,16,23.40
2014,09,16,16,17,23.40
2014,09,16,16,18,23.40
2014,09,16,16,19,23.30
2014,09,16,16,20,23.20
2014,09,16,16,21,23.10
2014,09,16,16,22,23.00
2014,09,16,16,23,22.90
2014,09,16,16,24,22.90
2014,09,16,16,25,22.90
2014,09,16,16,26,22.90
2014,09,16,16,27,22.90
2014,09,16,16,28,22.90
2014,09,16,16,29,22.90
2014,09,16,16,30,22.80
2014,09,16,16,31,22.80
2014,09,16,16,32,22.70
2014,09,16,16,33,22.70
2014,09,16,16,34,22.70
2014,09,16,16,35,22.70
2014,09,16,16,36,22.70
2014,09,16,16,37,22.80
2014,09,16,16,38,22.90
2014,09,16,16,39,22.90
2014,09,16,16,40,22.90
2014,09,16,16,41,22.90
2014,09,16,16,42,22.90
2014,09,16,16,43,22.90
2014,09,16,16,44,22.80
2014,09,16,16,45,22.70
2014,09,16,16,46,22.60
2014,09,16,16,47,22.50
2014,09,16,16,48,22.50
2014,09,16,16,49,22.30
2014,09,16,16,50,22.20
2014,09,16,16,51,22.20
2014,09,16,16,52,22.10
2014,09,16,16,53,22.00
2014,09,16,16,54,21.90
2014,09,16,16,55,21.90
2014,09,16,16,56,21.80
2014,09,16,16,57,21.80
2014,09,16,16,58,21.70
2014,09,16,16,59,21.70
2014,09,16,17,00,21.60
2014,09,16,17,01,21.60
2014,09,16,17,02,21.60
2014,09,16,17,03,21.60
2014,09,16,17,04,21.50
2014,09,16,17,05,21.40
2014,09,16,17,06,21.40
2014,09,16,17,07,21.40
2014,09,16,17,08,21.40
2014,09,16,17,09,21.40
2014,09,16,17,10,21.40
2014,09,16,17,11,21.40
2014,09,16,17,12,21.40
2014,09,16,17,13,21.40
2014,09,16,17,14,21.40
2014,09,16,17,15,21.40
2014,09,16,17,16,21.40
2014,09,16,17,17,21.30
2014,09,16,17,18,21.30
2014,09,16,17,19,21.30